TimeEDT,TemperatureF,Dew PointF,Humidity,Sea Level PressureIn,VisibilityMPH,Wind Direction,Wind SpeedMPH,Gust SpeedMPH,PrecipitationIn,Events,Conditions,WindDirDegrees,DateUTC
12:53 AM,62.1,57.0,84,29.94,10.0,NNE,3.5,-,N/A,,Overcast,20,2013-10-11 04:53:00
1:53 AM,62.1,57.0,84,29.94,10.0,NNE,3.5,-,0.03,,Overcast,20,2013-10-11 05:53:00
2:53 AM,62.1,55.9,80,29.93,10.0,NNE,6.9,-,0.04,,Overcast,20,2013-10-11 06:53:00
3:53 AM,62.1,57.0,84,29.93,10.0,North,3.5,-,N/A,,Overcast,350,2013-10-11 07:53:00
4:53 AM,62.1,55.9,80,29.93,10.0,North,3.5,-,N/A,,Overcast,350,2013-10-11 08:53:00
5:53 AM,62.1,55.9,80,29.93,10.0,NNW,3.5,-,N/A,,Overcast,340,2013-10-11 09:53:00
6:53 AM,62.1,55.9,80,29.94,10.0,Calm,Calm,-,N/A,,Overcast,0,2013-10-11 10:53:00
7:53 AM,62.1,57.0,84,29.95,10.0,Calm,Calm,-,N/A,,Overcast,0,2013-10-11 11:53:00
8:15 AM,62.6,57.2,82,29.97,10.0,Calm,Calm,-,N/A,,Overcast,0,2013-10-11 12:15:00
8:23 AM,62.6,57.2,82,29.98,10.0,Calm,Calm,-,N/A,,Overcast,0,2013-10-11 12:23:00
8:53 AM,62.1,57.9,86,29.96,10.0,NW,4.6,-,0.00,Rain,Light Rain,310,2013-10-11 12:53:00
9:00 AM,62.6,57.2,82,29.98,10.0,NNW,4.6,-,0.00,,Overcast,330,2013-10-11 13:00:00
9:53 AM,64.9,57.9,78,29.96,10.0,Calm,Calm,-,0.00,,Overcast,0,2013-10-11 13:53:00
10:53 AM,64.9,57.9,78,29.97,10.0,NNW,3.5,-,N/A,,Overcast,340,2013-10-11 14:53:00
11:53 AM,64.9,59.0,81,29.97,7.0,NE,3.5,-,0.00,,Overcast,40,2013-10-11 15:53:00
12:53 PM,68.0,60.1,76,29.95,10.0,North,8.1,-,N/A,,Overcast,10,2013-10-11 16:53:00
1:49 PM,69.8,60.8,73,29.96,10.0,NW,4.6,-,0.00,,Overcast,320,2013-10-11 17:49:00
1:53 PM,69.1,60.1,73,29.93,10.0,NW,4.6,-,0.00,,Overcast,320,2013-10-11 17:53:00
2:08 PM,69.8,59.0,68,29.95,10.0,NW,5.8,-,N/A,,Overcast,320,2013-10-11 18:08:00
2:46 PM,71.6,59.0,64,29.94,10.0,NE,3.5,-,N/A,,Overcast,40,2013-10-11 18:46:00
2:53 PM,70.0,59.0,68,29.92,10.0,Variable,3.5,-,N/A,,Overcast,0,2013-10-11 18:53:00
3:53 PM,70.0,60.1,71,29.91,10.0,Variable,3.5,-,N/A,,Overcast,0,2013-10-11 19:53:00
4:14 PM,69.8,60.8,73,29.93,10.0,East,3.5,-,N/A,,Mostly Cloudy,80,2013-10-11 20:14:00
4:53 PM,71.1,60.1,68,29.91,10.0,Calm,Calm,-,N/A,,Overcast,0,2013-10-11 20:53:00
5:53 PM,69.1,62.1,78,29.92,10.0,Calm,Calm,-,N/A,,Overcast,0,2013-10-11 21:53:00
6:53 PM,69.1,61.0,75,29.93,10.0,NE,3.5,-,N/A,,Overcast,50,2013-10-11 22:53:00
7:53 PM,68.0,60.1,76,29.95,10.0,NNE,4.6,-,N/A,,Overcast,30,2013-10-11 23:53:00
8:53 PM,66.9,59.0,76,29.96,10.0,NE,3.5,-,N/A,,Overcast,50,2013-10-12 00:53:00
9:53 PM,66.0,59.0,78,29.97,10.0,NE,5.8,-,N/A,,Overcast,50,2013-10-12 01:53:00
10:53 PM,64.9,57.9,78,29.97,10.0,NE,4.6,-,N/A,,Overcast,40,2013-10-12 02:53:00
11:53 PM,64.9,57.0,75,29.97,10.0,NNE,3.5,-,N/A,,Overcast,30,2013-10-12 03:53:00